Flag for Germany Weather past 2 weeks in Freiburg, Baden-Württemberg, Germany

Now
63 °F

Overcast.


Feels Like: 63 °F
Forecast: 51 / 67 °F
Wind: 1 mph from Northeast

Location: Freiburg

Current Time: May 24, 2015 at 10:07:26 PM

Latest Report: May 24, 2015 at 9:00 PM


Visibility: 16 mi

Pressure: 30.02 "Hg

Humidity: 76%

Dew point: 55 °F

Location of FreiburgLocation

Historic Weather in Freiburg — Graph

°F

Freiburg temperature yesterday

Maximum temperature yesterday: 70 °F (at 3:00 PM)
Minimum temperature yesterday: 43 °F (at 4:00 AM)
Average temperature yesterday: 58 °F

Past Weeks' High & Low Weather Summary

 TemperatureHumidityPressure
High85 °F (May 12, 4:00 PM)100% (May 16, 3:00 AM)30.38 "Hg (May 16, 3:00 AM)
Low37 °F (May 22, 6:00 AM)27% (May 11, 6:00 PM)29.75 "Hg (May 18, 7:00 PM)
Average59 °F68%30.10 "Hg
* Reported May 9 7:00 PM — May 24 7:00 PM, Freiburg, Weather by CustomWeather, © 2015

Note: Actual official high and low records may vary slightly from our data, if they occured in-between our weather recording intervals... More about our weather records

Advertising

Freiburg weather history for previous 24 hours

 ConditionsComfort  
Time TempWeatherWind HumidityBarometerVisibility
7:00 PM
Sun, May 24
67 °FOvercast.1 mph60%30.01 "Hg17 mi
6:00 PM67 °FOvercast.2 mph58%30.02 "Hg15 mi
4:00 PM66 °FOvercast.2 mph62%30.04 "Hg15 mi
3:00 PM65 °FOvercast.2 mph63%30.04 "Hg15 mi
1:00 PM65 °FOvercast.3 mph60%30.04 "Hg16 mi
12:00 PM66 °FOvercast.2 mph60%30.04 "Hg14 mi
10:00 AM64 °FPassing clouds.3 mph66%30.05 "Hg11 mi
9:00 AM60 °FPassing clouds.2 mph68%30.06 "Hg11 mi
8:00 AM58 °FOvercast.1 mph69%30.06 "Hg16 mi
7:00 AM53 °FOvercast.No wind87%30.06 "Hg14 mi
6:00 AM51 °FOvercast.1 mph88%30.06 "Hg13 mi
4:00 AM52 °FOvercast.1 mph84%30.06 "Hg17 mi
3:00 AM57 °FOvercast.1 mph66%30.06 "Hg25 mi
1:00 AM55 °FOvercast.1 mph72%30.08 "Hg22 mi
12:00 AM54 °FOvercast.1 mph75%30.08 "Hg19 mi
10:00 PM
Sat, May 23
61 °FPassing clouds.2 mph54%30.06 "Hg28 mi
Weather by CustomWeather, © 2015

See weather overviewHow to use our weather pages